User: anonymous   Login
Location: Brno
(49.2000°N, 16.6330°E)
Time: 10:11:14
(UTC+02:00)
Language:

ISS - Orbit

View from above orbital plane
View from above orbital plane
View from above satellite
View from above satellite

Ground track
Ground track

The orbit data is extracted from the following two-line orbital elements,

1 25544U 98067A   16119.98154830  .00004463  00000-0  73988-4 0  9992
2 25544  51.6445 303.4812 0001996  79.0475  20.6476 15.54364085997321
Epoch (UTC): 28 April 2016 23:33:25
Eccentricity: 0.0001996
inclination: 51.6445°
perigee height: 402 km
apogee height: 405 km
right ascension of ascending node: 303.4812°
argument of perigee: 79.0475°
revolutions per day: 15.54364085
mean anomaly at epoch: 20.6476°
orbit number at epoch: 99732

The dashed part of the orbit path shows where the satellite is in the earth's shadow,  

DLR